ISAT
1 43879U 18111D 19255.80824240 .00000235 00000-0 26012-4 0 9998
2 43879 97.7103 162.5424 0014675 95.5719 264.7176 14.96028550 36825
UWE-4
1 43880U 18111E 19255.69918715 .00000678 00000-0 65022-4 0 9993
2 43880 97.7119 162.5639 0014073 96.2993 263.9832 14.96273878 36810
Sparrow
1 43881U 18111F 19254.75501865 .00000671 00000-0 64330-4 0 9998
2 43881 97.7121 161.6651 0014093 98.4296 261.8523 14.96318109 36675
Lume 1
1 43908U 18111AJ 19255.72611209 .00000838 00000-0 36777-4 0 9999
2 43908 97.2816 158.6042 0023019 50.6682 309.6591 15.24454947 39557
FO-98
1 43933U 19003B 19255.70229075 .00000560 00000-0 27615-4 0 9995
2 43933 97.2745 310.4596 0019111 138.6695 339.1446 15.21718873 36133
FO-99
1 43937U 19003F 19255.73109459 .00001140 00000-0 49933-4 0 9997
2 43937 97.2687 311.0010 0025670 126.5146 329.2045 15.23716137 36187
Delphini 1
1 44030U 98067PW 19255.53824890 .00007859 00000-0 10974-3 0 9995
2 44030 51.6365 281.1436 0005083 98.7797 261.3771 15.57896400 34927
MYSat 1
1 44045U 18092F 19255.19852379 .00001240 00000-0 46811-4 0 9994
2 44045 51.6461 316.7339 0012278 38.2910 321.8856 15.35223185 32370
AstroCast 0.2
1 44083U 19018F 19255.70311236 .00000385 00000-0 20235-4 0 9995
2 44083 97.4611 314.9757 0015565 70.4998 289.7917 15.21442220 24994
AISTechSat 3
1 44103U 19018AB 19255.72214598 .00000721 00000-0 33865-4 0 9990
2 44103 97.4492 315.0222 0015253 86.4930 31.9539 15.22724939 25012
AISat 1
1 44104U 19018AC 19255.70927049 .00000770 00000-0 27348-4 0 9994
2 44104 97.5019 318.0995 0060425 121.1567 239.5618 15.30571653 25165
Raavana-1
1 44329U 98067QE 19254.81746797 .00004981 00000-0 86173-4 0 9993
2 44329 51.6403 290.5959 0007857 41.4375 318.7210 15.52865600 13489
Uguisu
1 44330U 98067QF 19255.14136832 .00004888 00000-0 84807-4 0 9993
2 44330 51.6402 289.0087 0007857 41.3323 318.8260 15.52829327 13513
NepaliSat-1
1 44331U 98067QG 19255.13728660 .00004916 00000-0 85029-4 0 9998
2 44331 51.6402 288.9822 0007880 43.9386 316.2230 15.52904123 13520
Prox-1
1 44339U 19036A 19252.85315730 .00000152 00000-0 -14003-4 0 9994
2 44339 23.9999 83.2756 0010623 311.7117 48.2486 14.52655217 11136
OBJECT H
1 44346U 19036H 19255.49512009 .00014980 00000-0 23547-3 0 9998
2 44346 28.5244 46.3251 0388169 222.8674 134.1062 14.97193797 11876
OBJECT J
1 44347U 19036J 19255.48676098 .00037030 00000-0 57334-3 0 9999
2 44347 28.5312 45.3423 0376296 224.3109 132.6638 15.00226338 11887
OBJECT K
1 44348U 19036K 19255.73679421 .00009876 00000-0 15043-3 0 9999
2 44348 28.5204 44.3543 0388248 225.6498 131.1469 14.97536457 11916
Armadillo
1 44352U 19036P 19254.45539870 .00017329 00000-0 27312-3 0 9999
2 44352 28.5333 52.5622 0383793 212.3089 145.3600 14.98098983 11666
NO-104
1 44354U 19036R 19254.49937062 .00009102 00000-0 13822-3 0 9991
2 44354 28.5339 51.9008 0384656 212.9453 144.6606 14.98259058 11711
NO-103
1 44355U 19036S 19255.48135793 .00016380 00000-0 25225-3 0 9999
2 44355 28.5348 45.2578 0380579 223.7920 133.1887 14.99204107 11865
Oculus-ASR
1 44356U 19036T 19255.72542328 .00047147 00000-0 66422-3 0 9992
2 44356 28.5271 42.3503 0374515 228.3737 128.3971 15.02615968 11920
CP9
1 44360U 19036X 19255.47074843 .00030452 00000-0 41564-3 0 9992
2 44360 28.5192 44.0734 0383809 225.8245 131.0174 15.01310708 11754
Move-IIb
1 44398U 19038N 19254.87990066 .00000952 00000-0 59343-4 0 9999
2 44398 97.4958 215.4967 0026138 14.2199 345.9761 15.11673793 10337
SONATE
1 44400U 19038Q 19255.07702480 .00000804 00000-0 50718-4 0 9990
2 44400 97.4966 215.6959 0025625 11.5806 348.6125 15.11671678 10365
BeeSat 9
1 44412U 19038AC 19254.87239968 .00000643 00000-0 41239-4 0 9995
2 44412 97.4969 215.5078 0023631 18.4785 341.7298 15.11819081 10029
JAISAT-1
1 44419U 19038F 19255.11463532 .00000731 00000-0 45726-4 0 9999
2 44419 97.4971 215.7984 0022473 17.9141 342.2877 15.12312504 10376
LightSail-2
1 44420U 19036AC 19254.50192775 .00006952 00000-0 15991-2 0 9999
2 44420 024.0051 072.9354 0024125 306.1693 053.6605 14.52932824009521
/EX
1
0
SB KEPS @ AMSAT $ORB19248.N
2Line Orbital Elements 19248.AMSAT
HR AMSAT ORBITAL ELEMENTS FOR AMATEUR SATELLITES IN NASA FORMAT
FROM WA5QGD FORT WORTH,TX September 5, 2019
BID: ORB19248.N
DECODE 2-LINE ELSETS WITH THE FOLLOWING KEY:
1 AAAAAU 00 0 0 BBBBB.BBBBBBBB .CCCCCCCC 00000-0 00000-0 0 DDDZ
2 AAAAA EEE.EEEE FFF.FFFF GGGGGGG HHH.HHHH III.IIII JJ.JJJJJJJJKKKKKZ
KEY: A-CATALOGNUM B-EPOCHTIME C-DECAY D-ELSETNUM E-INCLINATION F-RAAN
G-ECCENTRICITY H-ARGPERIGEE I-MNANOM J-MNMOTION K-ORBITNUM Z-CHECKSUM
TO ALL RADIO AMATEURS BT
AO-07
1 07530U 74089B 19248.48133615 -.00000030 00000-0 95714-4 0 9992
2 07530 101.7520 215.3578 0011916 193.5580 279.1182 12.53639584 50396
UO-11
1 14781U 84021B 19248.50277731 .00000061 00000-0 13553-4 0 9990
2 14781 97.6079 269.4787 0009884 65.6054 294.6191 14.83103963910447
LO-19
1 20442U 90005G 19248.43395961 .00000004 00000-0 17672-4 0 9991
2 20442 98.6526 190.3194 0010625 278.8736 81.1245 14.32931748547652
HUBBLE
1 20580U 90037B 19248.77614156 .00000420 00000-0 14595-4 0 9999
2 20580 28.4702 48.9812 0002522 256.4008 210.0655 15.09261639412848
MET-2/21
1 22782U 93055A 19248.13705712 .00000005 00000-0 -82909-5 0 9992
2 22782 82.5461 100.8243 0021574 320.9173 156.8100 13.83820046313712
AO-27
1 22825U 93061C 19248.84200665 -.00000011 00000-0 13874-4 0 9993
2 22825 98.9091 239.3059 0009305 124.3113 235.8950 14.30065568353269
IO-26
1 22826U 93061D 19247.91588275 -.00000019 00000-0 10622-4 0 9993
2 22826 098.9031 238.3397 0009895 116.6461 243.5735 14.30399351353089
FO-29
1 24278U 96046B 19247.93148224 -.00000038 00000-0 -34378-5 0 9997
2 24278 098.5490 030.7600 0350959 037.3078 325.1890 13.53093097138139
NOAA-15
1 25338U 98030A 19248.63801593 .00000013 00000-0 24360-4 0 9993
2 25338 98.7441 269.7505 0010713 19.8792 340.2803 14.25929417108506
GO-32
1 25397U 98043D 19247.84208972 -.00000006 00000-0 16533-4 0 9992
2 25397 98.6920 187.0536 0001796 131.6759 228.4573 14.23669835 98990
ISS
1 25544U 98067A 19248.74104551 .00001914 00000-0 40959-4 0 9997
2 25544 51.6464 321.7009 0007980 9.7566 136.4246 15.50436092187756
NO-44
1 26931U 01043C 19248.85321486 -.00000043 00000-0 15414-4 0 9997
2 26931 67.0516 159.4053 0007476 272.5306 87.4939 14.30551162936291
SO-50
1 27607U 02058C 19247.89393640 -.00000033 00000-0 16307-4 0 9990
2 27607 64.5552 170.5018 0077817 241.4425 117.8830 14.75568658898575
CO-55
1 27844U 03031E 19247.88662564 .00000032 00000-0 34103-4 0 9990
2 27844 98.6850 254.9329 0010204 158.5142 201.6466 14.22192493839406
CO-57
1 27848U 03031J 19247.83067595 .00000015 00000-0 26481-4 0 9993
2 27848 98.6926 255.3943 0009873 169.9429 190.1948 14.21785893839245
RS-22
1 27939U 03042A 19248.70211364 .00000073 00000-0 21722-4 0 9995
2 27939 98.0524 23.0266 0013275 172.3927 187.7483 14.66799925852122
NOAA-18
1 28654U 05018A 19248.62118946 .00000055 00000-0 54572-4 0 9997
2 28654 99.0889 296.7460 0013486 318.6901 41.3249 14.12449372736651
CO-58
1 28895U 05043F 19247.85128224 .00000121 00000-0 32038-4 0 9993
2 28895 97.9702 27.9512 0018174 104.2877 256.0346 14.63687071738922
Falconsat-3
1 30776U 07006E 19247.60496484 .00002149 00000-0 60496-4 0 9995
2 30776 35.4354 313.3402 0001783 98.9907 261.1021 15.36432091692673
CO-65
1 32785U 08021C 19248.48056388 .00000185 00000-0 25601-4 0 9994
2 32785 97.5532 244.4922 0013271 8.7841 351.3606 14.88338702615401
